| time (UTC) | temp F | wind direction | speed knots | gust knots | rain 1hr in | rain 24hr in | rain mn in | humidity % | barometer mb |
| 20260905091503 | 54 | 314 | 0.0 | 1.7 | 0.00 | 0.00 | 0.00 | 92 | 1017.0 |
| 20260905091003 | 54 | 324 | 0.9 | 1.7 | 0.00 | 0.00 | 0.00 | 92 | 1016.9 |
| 20260905090502 | 54 | 331 | 0.9 | 1.7 | 0.00 | 0.00 | 0.00 | 92 | 1016.9 |
| 20260905085002 | 54 | 324 | 0.9 | 0.9 | 0.00 | 0.00 | 0.00 | 92 | 1016.8 |
| 20260905084503 | 54 | 360 | 0.9 | 1.7 | 0.00 | 0.00 | 0.00 | 92 | 1016.8 |
| 20260905083502 | 54 | 340 | 0.9 | 1.7 | 0.00 | 0.00 | 0.00 | 92 | 1016.6 |
| 20260905083003 | 54 | 327 | 0.9 | 1.7 | 0.00 | 0.00 | 0.00 | 92 | 1016.6 |
| 20260905082503 | 54 | 340 | 0.9 | 1.7 | 0.00 | 0.00 | 0.00 | 91 | 1016.6 |
| 20260905082001 | 54 | 269 | 0.0 | 0.9 | 0.00 | 0.00 | 0.00 | 91 | 1016.7 |
| 20260905081003 | 54 | 314 | 0.9 | 1.7 | 0.00 | 0.00 | 0.00 | 91 | 1016.8 |
| 20260905080502 | 54 | 314 | 0.9 | 1.7 | 0.00 | 0.00 | 0.00 | 91 | 1016.9 |
| 20260905080007 | 55 | 314 | 0.9 | 1.7 | 0.00 | 0.00 | 0.00 | 91 | 1016.8 |
| 20260905075503 | 55 | 331 | 0.9 | 1.7 | 0.00 | 0.00 | 0.00 | 91 | 1016.7 |
| 20260905075003 | 55 | 314 | 0.0 | 0.9 | 0.00 | 0.00 | 0.00 | 91 | 1016.8 |
| 20260905074502 | 55 | 1 | 0.9 | 0.9 | 0.00 | 0.00 | 0.00 | 91 | 1016.8 |
| 20260905074002 | 55 | 46 | 0.0 | 1.7 | 0.00 | 0.00 | 0.00 | 91 | 1016.9 |
| 20260905073003 | 55 | 331 | 0.9 | 1.7 | 0.00 | 0.00 | 0.00 | 91 | 1016.8 |
| 20260905072502 | 55 | 340 | 0.9 | 1.7 | 0.00 | 0.00 | 0.00 | 91 | 1016.8 |
| 20260905072003 | 55 | 331 | 0.9 | 1.7 | 0.00 | 0.00 | 0.00 | 91 | 1016.8 |
| 20260905071502 | 55 | 286 | 0.0 | 0.9 | 0.00 | 0.00 | 0.00 | 90 | 1016.7 |
| 20260905071003 | 55 | 1 | 0.0 | 0.9 | 0.00 | 0.00 | 0.00 | 90 | 1016.7 |
| 20260905070502 | 55 | 1 | 0.9 | 0.9 | 0.00 | 0.00 | 0.00 | 90 | 1016.6 |
| 20260905065504 | 56 | 46 | 0.0 | 1.7 | 0.00 | 0.00 | 0.00 | 90 | 1016.6 |
| 20260905064505 | 56 | 135 | 0.0 | 1.7 | 0.00 | 0.00 | 0.00 | 90 | 1016.4 |
| 20260905064004 | 56 | 324 | 0.9 | 1.7 | 0.00 | 0.00 | 0.00 | 90 | 1016.4 |
| 20260905063504 | 56 | 314 | 0.0 | 1.7 | 0.00 | 0.00 | 0.00 | 90 | 1016.3 |
| 20260905063006 | 56 | 321 | 0.9 | 1.7 | 0.00 | 0.00 | 0.00 | 89 | 1016.3 |
| 20260905062504 | 56 | 1 | 0.0 | 0.9 | 0.00 | 0.00 | 0.00 | 90 | 1016.4 |
| 20260905062004 | 56 | 46 | 0.0 | 1.7 | 0.00 | 0.00 | 0.00 | 90 | 1016.4 |
| 20260905061505 | 56 | 89 | 0.9 | 1.7 | 0.00 | 0.00 | 0.00 | 90 | 1016.4 |
| 20260905061005 | 56 | 46 | 0.0 | 1.7 | 0.00 | 0.00 | 0.00 | 89 | 1016.4 |
| 20260905060504 | 56 | 324 | 0.9 | 1.7 | 0.00 | 0.00 | 0.00 | 89 | 1016.4 |
| 20260905055504 | 56 | 46 | 0.0 | 1.7 | 0.00 | 0.00 | 0.00 | 89 | 1016.4 |
| 20260905054505 | 56 | 344 | 0.9 | 1.7 | 0.00 | 0.00 | 0.00 | 89 | 1016.3 |
| 20260905054005 | 56 | 1 | 0.9 | 1.7 | 0.00 | 0.00 | 0.00 | 89 | 1016.3 |
| 20260905053503 | 56 | 340 | 0.9 | 1.7 | 0.00 | 0.00 | 0.00 | 89 | 1016.4 |
| 20260905053006 | 56 | 331 | 0.0 | 1.7 | 0.00 | 0.00 | 0.00 | 89 | 1016.4 |
| 20260905052503 | 56 | 46 | 0.9 | 1.7 | 0.00 | 0.00 | 0.00 | 89 | 1016.5 |
| 20260905052005 | 56 | 321 | 0.9 | 1.7 | 0.00 | 0.00 | 0.00 | 89 | 1016.5 |
| 20260905051505 | 57 | 28 | 0.0 | 1.7 | 0.00 | 0.00 | 0.00 | 89 | 1016.5 |
| 20260905051005 | 57 | 324 | 0.0 | 1.7 | 0.00 | 0.00 | 0.00 | 88 | 1016.6 |
| 20260905050504 | 57 | 1 | 0.9 | 1.7 | 0.00 | 0.00 | 0.00 | 88 | 1016.6 |
| 20260905050007 | 57 | 135 | 0.0 | 1.7 | 0.00 | 0.00 | 0.00 | 88 | 1016.5 |
| 20260905045504 | 57 | 331 | 0.9 | 1.7 | 0.00 | 0.00 | 0.00 | 88 | 1016.5 |
| 20260905045006 | 57 | 344 | 0.0 | 1.7 | 0.00 | 0.00 | 0.00 | 88 | 1016.6 |
| 20260905044505 | 57 | 1 | 0.9 | 1.7 | 0.00 | 0.00 | 0.00 | 88 | 1016.6 |
| 20260905043005 | 57 | 46 | 0.0 | 0.9 | 0.00 | 0.00 | 0.00 | 87 | 1016.5 |
| 20260905042004 | 57 | 269 | 0.0 | 0.9 | 0.00 | 0.00 | 0.00 | 87 | 1016.5 |
| 20260905041005 | 57 | 46 | 0.0 | 0.9 | 0.00 | 0.00 | 0.00 | 86 | 1016.4 |
| 20260905040504 | 57 | 152 | 0.0 | 0.9 | 0.00 | 0.00 | 0.00 | 86 | 1016.4 |
| 20260905040008 | 57 | 135 | 0.9 | 1.7 | 0.00 | 0.00 | 0.00 | 85 | 1016.4 |
| 20260905034005 | 58 | 46 | 0.0 | 1.7 | 0.00 | 0.00 | 0.00 | 82 | 1016.3 |
| 20260905033007 | 59 | 296 | 0.0 | 0.9 | 0.00 | 0.00 | 0.00 | 81 | 1016.3 |
| 20260905032505 | 59 | 1 | 0.0 | 0.9 | 0.00 | 0.00 | 0.00 | 81 | 1016.3 |
| 20260905032005 | 59 | 1 | 0.0 | 0.9 | 0.00 | 0.00 | 0.00 | 81 | 1016.2 |
| 20260905031504 | 60 | 331 | 0.0 | 0.9 | 0.00 | 0.00 | 0.00 | 81 | 1016.1 |
| 20260905030503 | 60 | 117 | 0.0 | 1.7 | 0.00 | 0.00 | 0.00 | 78 | 1015.9 |
| 20260905025504 | 60 | 314 | 0.9 | 1.7 | 0.00 | 0.00 | 0.00 | 77 | 1015.8 |
| 20260905024504 | 61 | 28 | 0.0 | 0.9 | 0.00 | 0.00 | 0.00 | 75 | 1015.6 |
| 20260905024006 | 61 | 1 | 0.0 | 1.7 | 0.00 | 0.00 | 0.00 | 75 | 1015.6 |
| 20260905023504 | 62 | 1 | 0.9 | 2.6 | 0.00 | 0.00 | 0.00 | 74 | 1015.5 |
| 20260905023005 | 62 | 1 | 1.7 | 2.6 | 0.00 | 0.00 | 0.00 | 73 | 1015.6 |
| 20260905022505 | 62 | 303 | 0.9 | 1.7 | 0.00 | 0.00 | 0.00 | 74 | 1015.6 |
| 20260905022005 | 62 | 303 | 0.9 | 1.7 | 0.00 | 0.00 | 0.00 | 73 | 1015.5 |
| 20260905021506 | 63 | 314 | 0.9 | 2.6 | 0.00 | 0.00 | 0.00 | 72 | 1015.5 |
| 20260905021006 | 63 | 314 | 0.9 | 1.7 | 0.00 | 0.00 | 0.00 | 70 | 1015.4 |
| 20260905020505 | 63 | 314 | 0.9 | 1.7 | 0.00 | 0.00 | 0.00 | 70 | 1015.4 |
| 20260905020008 | 63 | 1 | 0.0 | 1.7 | 0.00 | 0.00 | 0.00 | 70 | 1015.5 |
| 20260905015505 | 64 | 46 | 0.9 | 1.7 | 0.00 | 0.00 | 0.00 | 68 | 1015.4 |
| 20260905015005 | 64 | 89 | 0.0 | 1.7 | 0.00 | 0.00 | 0.00 | 67 | 1015.4 |
| 20260905014005 | 64 | 28 | 0.9 | 2.6 | 0.00 | 0.00 | 0.00 | 65 | 1015.3 |
| 20260905013505 | 65 | 1 | 0.9 | 2.6 | 0.00 | 0.00 | 0.00 | 66 | 1015.3 |
| 20260905013006 | 65 | 349 | 0.9 | 2.6 | 0.00 | 0.00 | 0.00 | 64 | 1015.3 |
| 20260905012004 | 65 | 1 | 0.9 | 2.6 | 0.00 | 0.00 | 0.00 | 64 | 1015.2 |
| 20260905011504 | 65 | 310 | 0.9 | 2.6 | 0.00 | 0.00 | 0.00 | 63 | 1015.2 |
| 20260905011004 | 65 | 35 | 0.9 | 2.6 | 0.00 | 0.00 | 0.00 | 62 | 1015.2 |
| 20260905010503 | 65 | 340 | 1.7 | 3.5 | 0.00 | 0.00 | 0.00 | 62 | 1015.2 |
| 20260905010005 | 66 | 340 | 1.7 | 3.5 | 0.00 | 0.00 | 0.00 | 62 | 1015.1 |
| 20260905005504 | 66 | 20 | 0.9 | 2.6 | 0.00 | 0.00 | 0.00 | 63 | 1015.1 |
| 20260905005004 | 66 | 1 | 0.9 | 2.6 | 0.00 | 0.00 | 0.00 | 63 | 1015.0 |
| 20260905004505 | 66 | 319 | 0.9 | 5.2 | 0.00 | 0.00 | 0.00 | 63 | 1014.9 |
| 20260905004004 | 66 | 1 | 0.9 | 5.2 | 0.00 | 0.00 | 0.00 | 64 | 1014.9 |
| 20260905003505 | 66 | 344 | 1.7 | 3.5 | 0.00 | 0.00 | 0.00 | 66 | 1014.9 |
| 20260905003006 | 66 | 336 | 1.7 | 3.5 | 0.00 | 0.00 | 0.00 | 67 | 1014.9 |
| 20260905002504 | 66 | 340 | 1.7 | 3.5 | 0.00 | 0.00 | 0.00 | 65 | 1014.9 |
| 20260905002005 | 66 | 314 | 1.7 | 4.3 | 0.00 | 0.00 | 0.00 | 65 | 1014.8 |
| 20260905001004 | 66 | 46 | 0.9 | 4.3 | 0.00 | 0.00 | 0.00 | 66 | 1014.8 |
| 20260905000503 | 66 | 269 | 1.7 | 4.3 | 0.00 | 0.00 | 0.00 | 66 | 1014.8 |
| 20260905000006 | 66 | 46 | 0.9 | 3.5 | 0.00 | 0.00 | 0.00 | 66 | 1014.8 |
| 20260904235503 | 65 | 269 | 0.9 | 2.6 | 0.00 | 0.00 | 0.00 | 67 | 1014.8 |
| 20260904235004 | 65 | 46 | 0.9 | 2.6 | 0.00 | 0.00 | 0.00 | 67 | 1014.8 |
| 20260904234504 | 65 | 342 | 1.7 | 4.3 | 0.00 | 0.00 | 0.00 | 66 | 1014.7 |
| 20260904234004 | 65 | 350 | 2.6 | 4.3 | 0.00 | 0.00 | 0.00 | 66 | 1014.6 |
| 20260904233006 | 64 | 314 | 0.9 | 4.3 | 0.00 | 0.00 | 0.00 | 67 | 1014.7 |
| 20260904232503 | 64 | 1 | 2.6 | 4.3 | 0.00 | 0.00 | 0.00 | 67 | 1014.7 |
| 20260904232004 | 64 | 296 | 1.7 | 5.2 | 0.00 | 0.00 | 0.00 | 66 | 1014.7 |
| 20260904231503 | 64 | 341 | 2.6 | 6.1 | 0.00 | 0.00 | 0.00 | 67 | 1014.7 |
| 20260904231003 | 64 | 343 | 1.7 | 6.1 | 0.00 | 0.00 | 0.00 | 68 | 1014.6 |
| 20260904230006 | 64 | 340 | 1.7 | 3.5 | 0.00 | 0.00 | 0.00 | 68 | 1014.7 |
| 20260904225003 | 64 | 303 | 2.6 | 6.1 | 0.00 | 0.00 | 0.00 | 69 | 1014.7 |
| 20260904224503 | 64 | 276 | 2.6 | 5.2 | 0.00 | 0.00 | 0.00 | 68 | 1014.7 |
| 20260904224003 | 65 | 258 | 2.6 | 5.2 | 0.00 | 0.00 | 0.00 | 66 | 1014.7 |
| 20260904223003 | 65 | 300 | 1.7 | 6.1 | 0.00 | 0.00 | 0.00 | 67 | 1014.7 |
| 20260904222005 | 65 | 318 | 2.6 | 7.0 | 0.00 | 0.00 | 0.00 | 63 | 1014.7 |
| 20260904221004 | 65 | 20 | 3.5 | 7.0 | 0.00 | 0.00 | 0.00 | 64 | 1014.6 |
| 20260904220503 | 66 | 314 | 2.6 | 7.0 | 0.00 | 0.00 | 0.00 | 63 | 1014.7 |
| 20260904220004 | 66 | 353 | 1.7 | 6.1 | 0.00 | 0.00 | 0.00 | 64 | 1014.6 |
| 20260904215503 | 66 | 331 | 1.7 | 6.1 | 0.00 | 0.00 | 0.00 | 63 | 1014.6 |
| 20260904215005 | 67 | 300 | 2.6 | 6.1 | 0.00 | 0.00 | 0.00 | 62 | 1014.6 |
| 20260904214503 | 67 | 336 | 2.6 | 6.1 | 0.00 | 0.00 | 0.00 | 62 | 1014.6 |
| 20260904214004 | 67 | 286 | 1.7 | 5.2 | 0.00 | 0.00 | 0.00 | 62 | 1014.5 |
| 20260904213004 | 68 | 314 | 2.6 | 7.0 | 0.00 | 0.00 | 0.00 | 63 | 1014.5 |
| 20260904212504 | 67 | 223 | 3.5 | 7.0 | 0.00 | 0.00 | 0.00 | 63 | 1014.5 |
| 20260904211504 | 67 | 108 | 2.6 | 6.1 | 0.00 | 0.00 | 0.00 | 63 | 1014.6 |
| 20260904211004 | 67 | 206 | 1.7 | 7.0 | 0.00 | 0.00 | 0.00 | 65 | 1014.5 |
| 20260904210507 | 67 | 283 | 2.6 | 6.1 | 0.00 | 0.00 | 0.00 | 65 | 1014.5 |
| 20260904210006 | 66 | 326 | 1.7 | 6.1 | 0.00 | 0.00 | 0.00 | 67 | 1014.5 |
| 20260904205503 | 66 | 189 | 1.7 | 8.7 | 0.00 | 0.00 | 0.00 | 68 | 1014.6 |
| 20260904205004 | 67 | 1 | 2.6 | 7.0 | 0.00 | 0.00 | 0.00 | 66 | 1014.5 |
| 20260904204503 | 67 | 316 | 1.7 | 6.1 | 0.00 | 0.00 | 0.00 | 66 | 1014.4 |
| 20260904203503 | 66 | 260 | 2.6 | 6.1 | 0.00 | 0.00 | 0.00 | 68 | 1014.5 |
| 20260904203006 | 65 | 290 | 1.7 | 7.0 | 0.00 | 0.00 | 0.00 | 69 | 1014.5 |
| 20260904202503 | 65 | 72 | 3.5 | 7.0 | 0.00 | 0.00 | 0.00 | 69 | 1014.5 |
| 20260904202004 | 64 | 178 | 1.7 | 4.3 | 0.00 | 0.00 | 0.00 | 71 | 1014.5 |
| 20260904201504 | 64 | 193 | 1.7 | 5.2 | 0.00 | 0.00 | 0.00 | 71 | 1014.4 |
| 20260904201005 | 63 | 192 | 2.6 | 7.0 | 0.00 | 0.00 | 0.00 | 72 | 1014.4 |
| 20260904200502 | 63 | 269 | 2.6 | 7.0 | 0.00 | 0.00 | 0.00 | 70 | 1014.4 |
| 20260904200008 | 64 | 317 | 1.7 | 6.1 | 0.00 | 0.00 | 0.00 | 70 | 1014.5 |
| 20260904195503 | 64 | 276 | 2.6 | 7.8 | 0.00 | 0.00 | 0.00 | 70 | 1014.5 |
| 20260904195004 | 63 | 117 | 2.6 | 7.8 | 0.00 | 0.00 | 0.00 | 72 | 1014.5 |
| 20260904194504 | 63 | 296 | 1.7 | 5.2 | 0.00 | 0.00 | 0.00 | 71 | 1014.6 |
| 20260904193503 | 64 | 262 | 3.5 | 6.1 | 0.00 | 0.00 | 0.00 | 71 | 1014.6 |
| 20260904193003 | 64 | 223 | 1.7 | 6.1 | 0.00 | 0.00 | 0.00 | 72 | 1014.5 |
| 20260904192503 | 64 | 284 | 1.7 | 6.1 | 0.00 | 0.00 | 0.00 | 71 | 1014.5 |
| 20260904192004 | 64 | 149 | 3.5 | 6.1 | 0.00 | 0.00 | 0.00 | 71 | 1014.6 |
| 20260904191506 | 64 | 290 | 1.7 | 4.3 | 0.00 | 0.00 | 0.00 | 72 | 1014.5 |
| 20260904191004 | 63 | 135 | 1.7 | 4.3 | 0.00 | 0.00 | 0.00 | 74 | 1014.5 |
| 20260904190504 | 63 | 254 | 1.7 | 6.1 | 0.00 | 0.00 | 0.00 | 75 | 1014.5 |
| 20260904190004 | 63 | 344 | 1.7 | 6.1 | 0.00 | 0.00 | 0.00 | 74 | 1014.4 |
| 20260904185503 | 63 | 301 | 1.7 | 6.1 | 0.00 | 0.00 | 0.00 | 74 | 1014.4 |
| 20260904185003 | 63 | 257 | 2.6 | 6.1 | 0.00 | 0.00 | 0.00 | 74 | 1014.4 |
| 20260904184504 | 63 | 283 | 2.6 | 6.1 | 0.00 | 0.00 | 0.00 | 75 | 1014.4 |
| 20260904184003 | 63 | 296 | 3.5 | 6.1 | 0.00 | 0.00 | 0.00 | 75 | 1014.3 |
| 20260904183505 | 62 | 213 | 1.7 | 5.2 | 0.00 | 0.00 | 0.00 | 76 | 1014.4 |
| 20260904183004 | 62 | 25 | 1.7 | 5.2 | 0.00 | 0.00 | 0.00 | 76 | 1014.4 |
| 20260904182503 | 62 | 311 | 2.6 | 7.0 | 0.00 | 0.00 | 0.00 | 75 | 1014.3 |
| 20260904182003 | 62 | 189 | 1.7 | 7.0 | 0.00 | 0.00 | 0.00 | 75 | 1014.2 |
| 20260904181504 | 63 | 178 | 1.7 | 5.2 | 0.00 | 0.00 | 0.00 | 75 | 1014.2 |
| 20260904180503 | 63 | 178 | 1.7 | 5.2 | 0.00 | 0.00 | 0.00 | 77 | 1014.2 |
| 20260904180008 | 61 | 144 | 1.7 | 5.2 | 0.00 | 0.00 | 0.00 | 78 | 1014.2 |
| 20260904175505 | 61 | 218 | 1.7 | 4.3 | 0.00 | 0.00 | 0.00 | 78 | 1014.2 |
| 20260904175004 | 61 | 319 | 1.7 | 4.3 | 0.00 | 0.00 | 0.00 | 79 | 1014.2 |
| 20260904174503 | 61 | 269 | 1.7 | 4.3 | 0.00 | 0.00 | 0.00 | 80 | 1014.2 |
| 20260904174005 | 61 | 56 | 0.9 | 6.1 | 0.00 | 0.00 | 0.00 | 80 | 1014.2 |
| 20260904173503 | 60 | 314 | 3.5 | 6.1 | 0.00 | 0.00 | 0.00 | 80 | 1014.1 |
| 20260904173006 | 60 | 135 | 1.7 | 5.2 | 0.00 | 0.00 | 0.00 | 80 | 1014.2 |
| 20260904172003 | 60 | 142 | 2.6 | 5.2 | 0.00 | 0.00 | 0.00 | 82 | 1013.9 |
| 20260904171504 | 59 | 340 | 1.7 | 4.3 | 0.00 | 0.00 | 0.00 | 83 | 1014.1 |
| 20260904171004 | 59 | 223 | 0.9 | 4.3 | 0.00 | 0.00 | 0.00 | 84 | 1014.1 |
| 20260904170504 | 58 | 213 | 1.7 | 4.3 | 0.00 | 0.00 | 0.00 | 85 | 1014.2 |
| 20260904170008 | 58 | 331 | 1.7 | 4.3 | 0.00 | 0.00 | 0.00 | 84 | 1014.3 |
| 20260904165503 | 57 | 269 | 2.6 | 4.3 | 0.00 | 0.00 | 0.00 | 85 | 1014.1 |
| 20260904165002 | 57 | 206 | 0.9 | 2.6 | 0.00 | 0.00 | 0.00 | 86 | 1014.1 |
| 20260904164503 | 57 | 46 | 1.7 | 3.5 | 0.00 | 0.00 | 0.00 | 87 | 1014.0 |
| 20260904163006 | 57 | 161 | 1.7 | 3.5 | 0.00 | 0.00 | 0.00 | 88 | 1014.1 |
| 20260904162504 | 57 | 178 | 0.9 | 4.3 | 0.00 | 0.00 | 0.00 | 88 | 1013.9 |
| 20260904162005 | 57 | 279 | 1.7 | 3.5 | 0.00 | 0.00 | 0.00 | 89 | 1013.8 |
| 20260904161005 | 56 | 269 | 1.7 | 2.6 | 0.00 | 0.00 | 0.00 | 90 | 1013.8 |
| 20260904160504 | 56 | 129 | 1.7 | 2.6 | 0.00 | 0.00 | 0.00 | 90 | 1013.9 |
| 20260904160007 | 56 | 152 | 0.9 | 2.6 | 0.00 | 0.00 | 0.00 | 91 | 1013.9 |
| 20260904155503 | 55 | 161 | 1.7 | 2.6 | 0.00 | 0.00 | 0.00 | 91 | 1013.7 |
| 20260904155003 | 55 | 135 | 0.9 | 1.7 | 0.00 | 0.00 | 0.00 | 91 | 1013.7 |
| 20260904154503 | 55 | 1 | 0.0 | 0.9 | 0.00 | 0.00 | 0.00 | 91 | 1013.8 |
| 20260904153503 | 54 | 314 | 0.0 | 0.9 | 0.00 | 0.00 | 0.00 | 91 | 1013.8 |
| 20260904151504 | 54 | 89 | 0.9 | 1.7 | 0.00 | 0.00 | 0.00 | 92 | 1013.6 |
| 20260904151004 | 53 | 152 | 0.9 | 1.7 | 0.00 | 0.00 | 0.00 | 92 | 1013.5 |
| 20260904150503 | 53 | 1 | 0.0 | 0.9 | 0.00 | 0.00 | 0.00 | 92 | 1013.5 |
| 20260904150003 | 53 | 296 | 0.0 | 0.9 | 0.00 | 0.00 | 0.00 | 92 | 1013.4 |
| 20260904145502 | 53 | 241 | 0.0 | 1.7 | 0.00 | 0.00 | 0.00 | 92 | 1013.4 |
| 20260904145003 | 53 | 1 | 0.9 | 1.7 | 0.00 | 0.00 | 0.00 | 92 | 1013.3 |
| 20260904144506 | 52 | 303 | 0.0 | 0.9 | 0.00 | 0.00 | 0.00 | 92 | 1013.2 |
| 20260904143004 | 52 | 1 | 0.9 | 1.7 | 0.00 | 0.00 | 0.00 | 92 | 1012.9 |
| 20260904142503 | 51 | 1 | 0.0 | 0.9 | 0.00 | 0.00 | 0.00 | 92 | 1012.8 |
| 20260904142003 | 51 | 46 | 0.0 | 0.9 | 0.00 | 0.00 | 0.00 | 92 | 1012.7 |
| 20260904141503 | 51 | 178 | 0.0 | 0.9 | 0.00 | 0.00 | 0.00 | 92 | 1012.6 |
| 20260904140503 | 51 | 135 | 0.0 | 1.7 | 0.00 | 0.00 | 0.00 | 92 | 1012.5 |
| 20260904140004 | 51 | 324 | 0.9 | 1.7 | 0.00 | 0.00 | 0.00 | 92 | 1012.5 |
| 20260904135502 | 51 | 314 | 0.9 | 1.7 | 0.00 | 0.00 | 0.00 | 92 | 1012.4 |
| 20260904134503 | 51 | 135 | 0.0 | 1.7 | 0.00 | 0.00 | 0.00 | 92 | 1012.4 |
| 20260904134003 | 51 | 314 | 0.0 | 1.7 | 0.00 | 0.00 | 0.00 | 92 | 1012.3 |
| 20260904133502 | 51 | 324 | 0.9 | 0.9 | 0.00 | 0.00 | 0.00 | 92 | 1012.2 |
| 20260904133004 | 51 | 1 | 0.0 | 1.7 | 0.00 | 0.00 | 0.00 | 92 | 1012.2 |
| 20260904132502 | 51 | 314 | 0.0 | 1.7 | 0.00 | 0.00 | 0.00 | 92 | 1012.2 |
| 20260904131503 | 51 | 1 | 0.9 | 1.7 | 0.00 | 0.00 | 0.00 | 92 | 1012.1 |
| 20260904130502 | 51 | 314 | 0.0 | 0.9 | 0.00 | 0.00 | 0.00 | 92 | 1012.1 |
| 20260904130003 | 51 | 324 | 0.9 | 0.9 | 0.00 | 0.00 | 0.00 | 92 | 1012.1 |
| 20260904125503 | 51 | 178 | 0.0 | 1.7 | 0.00 | 0.00 | 0.00 | 92 | 1012.0 |
| 20260904125004 | 51 | 314 | 0.9 | 1.7 | 0.00 | 0.00 | 0.00 | 92 | 1012.2 |
| 20260904124503 | 50 | 314 | 1.7 | 1.7 | 0.00 | 0.00 | 0.00 | 93 | 1012.2 |
| 20260904124003 | 50 | 327 | 0.9 | 1.7 | 0.00 | 0.00 | 0.00 | 92 | 1012.2 |
| 20260904123004 | 50 | 28 | 0.9 | 0.9 | 0.00 | 0.00 | 0.00 | 92 | 1012.1 |
| 20260904122503 | 50 | 1 | 0.0 | 1.7 | 0.00 | 0.00 | 0.00 | 92 | 1012.1 |
| 20260904121503 | 50 | 331 | 0.9 | 1.7 | 0.00 | 0.00 | 0.00 | 92 | 1011.9 |
| 20260904121003 | 50 | 324 | 0.9 | 1.7 | 0.00 | 0.00 | 0.00 | 92 | 1011.9 |
| 20260904120502 | 50 | 1 | 0.9 | 1.7 | 0.00 | 0.00 | 0.00 | 92 | 1011.9 |
| 20260904120004 | 50 | 89 | 0.0 | 1.7 | 0.00 | 0.00 | 0.00 | 92 | 1011.8 |
| 20260904115504 | 50 | 117 | 0.0 | 1.7 | 0.00 | 0.00 | 0.00 | 92 | 1011.7 |
| 20260904115003 | 50 | 1 | 0.9 | 1.7 | 0.00 | 0.00 | 0.00 | 92 | 1011.6 |
| 20260904114503 | 50 | 1 | 0.0 | 1.7 | 0.00 | 0.00 | 0.00 | 92 | 1011.6 |
| 20260904114003 | 50 | 124 | 0.9 | 1.7 | 0.00 | 0.00 | 0.00 | 91 | 1011.6 |
| 20260904113503 | 50 | 178 | 0.0 | 1.7 | 0.00 | 0.00 | 0.00 | 91 | 1011.6 |
| 20260904113004 | 51 | 331 | 0.9 | 1.7 | 0.00 | 0.00 | 0.00 | 91 | 1011.5 |
| 20260904112504 | 51 | 314 | 0.0 | 1.7 | 0.00 | 0.00 | 0.00 | 91 | 1011.6 |
| 20260904112005 | 51 | 324 | 0.9 | 0.9 | 0.00 | 0.00 | 0.00 | 91 | 1011.5 |
| 20260904111503 | 51 | 269 | 0.0 | 1.7 | 0.00 | 0.00 | 0.00 | 91 | 1011.4 |
| 20260904111004 | 51 | 20 | 0.9 | 1.7 | 0.00 | 0.00 | 0.00 | 91 | 1011.3 |
| 20260904110003 | 51 | 321 | 0.9 | 1.7 | 0.00 | 0.00 | 0.00 | 91 | 1011.3 |
| 20260904105003 | 50 | 336 | 0.9 | 1.7 | 0.00 | 0.00 | 0.00 | 92 | 1011.3 |
| 20260904104503 | 50 | 269 | 0.0 | 1.7 | 0.00 | 0.00 | 0.00 | 92 | 1011.4 |
| 20260904104003 | 50 | 46 | 0.9 | 1.7 | 0.00 | 0.00 | 0.00 | 92 | 1011.4 |
| 20260904103502 | 50 | 360 | 0.0 | 1.7 | 0.00 | 0.00 | 0.00 | 92 | 1011.3 |
| 20260904102503 | 49 | 324 | 0.9 | 1.7 | 0.00 | 0.00 | 0.00 | 92 | 1011.2 |
| 20260904102003 | 49 | 46 | 0.0 | 0.9 | 0.00 | 0.00 | 0.00 | 92 | 1011.1 |
| 20260904101503 | 49 | 46 | 0.0 | 0.9 | 0.00 | 0.00 | 0.00 | 92 | 1011.2 |
| 20260904101003 | 49 | 135 | 0.0 | 1.7 | 0.00 | 0.00 | 0.00 | 92 | 1011.2 |
| 20260904100004 | 49 | 340 | 0.9 | 0.9 | 0.00 | 0.00 | 0.00 | 92 | 1011.1 |
| 20260904095503 | 49 | 295 | 0.0 | 0.9 | 0.00 | 0.00 | 0.00 | 92 | 1011.1 |
| 20260904095003 | 49 | 360 | 0.0 | 0.9 | 0.00 | 0.00 | 0.00 | 92 | 1011.2 |
| 20260904094502 | 49 | 314 | 0.0 | 1.7 | 0.00 | 0.00 | 0.00 | 92 | 1011.2 |
| 20260904094003 | 49 | 344 | 1.7 | 1.7 | 0.00 | 0.00 | 0.00 | 92 | 1011.2 |
| 20260904093504 | 48 | 340 | 0.9 | 1.7 | 0.00 | 0.00 | 0.00 | 91 | 1011.1 |
| 20260904093005 | 48 | 296 | 0.0 | 0.9 | 0.00 | 0.00 | 0.00 | 91 | 1011.2 |
| 20260904092502 | 49 | 269 | 0.0 | 0.9 | 0.00 | 0.00 | 0.00 | 91 | 1011.2 |